Flag for Central African Republic Weather past 2 weeks in Bambari, Central African Republic

Now
90 °F

Scattered clouds.


Feels Like: 96 °F
Forecast: 69 / 89 °F
Wind: No wind

Location: Bangui Airport

Current Time: Jul 4, 2015 at 3:24:37 PM

Latest Report: Jul 4, 2015 at 2:00 PM


Visibility: N/A

Pressure: 29.92 "Hg

Humidity: 55%

Dew point: 72 °F

Location of BambariLocation

Historic Weather in Bambari — Graph

°F

Bambari temperature yesterday

Maximum temperature yesterday: 77 °F (at 12:00 AM)
Minimum temperature yesterday: 72 °F (at 6:00 AM)
Average temperature yesterday: 74 °F

Past Weeks' High & Low Weather Summary

 TemperatureHumidityPressure
High91 °F (Jun 24, 2:00 PM)100% (Jun 19, 9:00 PM)30.07 "Hg (Jun 19, 9:00 PM)
Low72 °F (Jun 21, 3:00 AM)55% (Jun 21, 4:00 PM)29.83 "Hg (Jun 19, 2:00 PM)
Average79 °F86%29.95 "Hg
* Reported Jun 19 2:00 PM — Jul 4 2:00 PM, Bambari, Weather by CustomWeather, © 2015

Note: Actual official high and low records may vary slightly from our data, if they occured in-between our weather recording intervals... More about our weather records

Advertising

Bambari weather history for previous 24 hours

 ConditionsComfort  
Time TempWeatherWind HumidityBarometerVisibility
2:00 PM
Sat, Jul 4
90 °FScattered clouds.No wind55%29.92 "HgN/A
1:00 PM88 °FPartly sunny.1 mph59%29.95 "HgN/A
12:00 PM88 °FPartly sunny.1 mph59%29.98 "HgN/A
11:00 AM86 °FScattered clouds.No wind66%29.98 "HgN/A
10:00 AM84 °FScattered clouds.No wind70%30.01 "HgN/A
9:00 AM81 °FScattered clouds.No wind79%30.01 "HgN/A
8:00 AM77 °FPassing clouds.1 mph83%30.01 "HgN/A
7:00 AM73 °FClear.3 mph100%30.01 "Hg4 mi
6:00 AM72 °FClear.No wind100%29.98 "Hg4 mi
5:00 AM72 °FClear.3 mph100%29.95 "Hg4 mi
2:00 AM73 °FPassing clouds.No wind94%29.95 "Hg4 mi
1:00 AM72 °FPassing clouds.2 mph100%29.95 "Hg4 mi
12:00 AM73 °FPassing clouds.2 mph94%29.95 "Hg4 mi
11:00 PM
Fri, Jul 3
73 °FPassing clouds.3 mph94%29.98 "Hg4 mi
10:00 PM73 °FPassing clouds.No wind94%29.98 "Hg5 mi
9:00 PM73 °FPassing clouds.No wind100%29.98 "Hg5 mi
8:00 PM73 °FPassing clouds.3 mph94%29.95 "Hg4 mi
7:00 PM75 °FPassing clouds.2 mph94%29.89 "HgN/A
5:00 PM75 °FMostly cloudy.2 mph89%29.89 "HgN/A
4:00 PM75 °FMostly cloudy.2 mph89%29.89 "HgN/A
3:00 PM75 °FLight rain. Mostly cloudy.1 mph89%29.92 "HgN/A
Weather by CustomWeather, © 2015

See weather overviewHow to use our weather pages